Location: Peebles
(55.6412°N, 3.1714°W)
Time: 22:51:50
(UTC+00:00)

FENGYUN 1C DEB - Pass Details

Date: 08 February 2023
Orbit: 707 x 862 km, 98.5° (Epoch: 07 November)

Event Time Altitude Azimuth Distance (km) Brightness Sun altitude
Rises 18:32:47 0° 141° (SE) 3,399 ? -13.1°
Reaches altitude 10° 18:35:12 10° 136° (SE) 2,473 ? -13.4°
Maximum altitude 18:40:28 48° 64° (ENE) 1,108 ? -14.2°
Drops below altitude 10° 18:45:44 10° 352° (N) 2,476 ? -14.9°
Sets 18:48:10 0° 347° (NNW) 3,404 ? -15.2°
